Flight Track Log - Related Links

Times and Time Zones

All times are in EST time to prevent confusion due to time zone crossing. See the TVD400 flight status page for this flight to view local times or setup timezone preferences in your user account.

Time Position Orientation Groundspeed Altitude Reporting Facility
EST Latitude Longitude Course Direction KTS MPH feet Rate Location/Type
Fri 11:13:51 PM 47.4036 -120.2594 119° Southeast  Level FlightAware Approximate
Fri 11:18:00 PM 47.3508 -120.1194 52° Northeast 200 230 4,700  Level Seattle Center
Fri 11:19:01 PM 47.3678 -120.0872 309° West 148 170 5,400 738 Climbing Seattle Center
Fri 11:20:02 PM 47.3900 -120.1281 304° West 122 140 6,200 738 Climbing Seattle Center
Fri 11:21:03 PM 47.4061 -120.1639 284° West 118 136 6,900 639 Climbing Seattle Center
Fri 11:22:04 PM 47.4133 -120.2053 264° West 108 124 7,500 738 Climbing Seattle Center
Fri 11:23:05 PM 47.4100 -120.2508 275° West 111 128 8,400 885 Climbing Seattle Center
Fri 11:24:06 PM 47.4131 -120.3039 283° West 110 127 9,300 787 Climbing Seattle Center
Fri 11:25:07 PM 47.4203 -120.3508 274° West 115 132 10,000 689 Climbing Seattle Center
Fri 11:26:08 PM 47.4225 -120.3975 258° West 118 136 10,700 689 Climbing Seattle Center
Fri 11:27:09 PM 47.4156 -120.4461 275° West 121 139 11,400 639 Climbing Seattle Center
Fri 11:28:10 PM 47.4189 -120.4983 272° West 130 150 12,000 295 Climbing Seattle Center
Fri 11:29:11 PM 47.4200 -120.5539 262° West 138 159 12,000 -49 Level Seattle Center
Fri 11:30:12 PM 47.4147 -120.6083 265° West 135 155 11,900  Descending Seattle Center
Fri 11:31:13 PM 47.4111 -120.6658 271° West 139 160 12,000 49 Climbing Seattle Center
Fri 11:32:14 PM 47.4119 -120.7264 259° West 146 168 12,000  Level Seattle Center
Fri 11:33:15 PM 47.4050 -120.7808 237° Southwest 138 159 12,000 -98 Level Seattle Center
Fri 11:34:16 PM 47.3861 -120.8236 234° Southwest 128 147 11,800 -49 Descending Seattle Center
Fri 11:35:17 PM 47.3631 -120.8708 255° West 124 143 11,900 98 Climbing Seattle Center
Fri 11:36:18 PM 47.3542 -120.9194 252° West 123 142 12,000 49 Climbing Seattle Center
Fri 11:37:19 PM 47.3433 -120.9686 244° Southwest 126 145 12,000 -49 Level Seattle Center
Fri 11:38:20 PM 47.3286 -121.0139 259° West 124 143 11,900 -98 Descending Seattle Center
Fri 11:39:21 PM 47.3219 -121.0633 249° West 125 144 11,800 -295 Descending Seattle Center
Fri 11:40:22 PM 47.3086 -121.1133 253° West 130 150 11,300 -344 Descending Seattle Center
Fri 11:41:23 PM 47.2981 -121.1636 240° Southwest 130 150 11,100 -639 Descending Seattle Center
Fri 11:42:24 PM 47.2775 -121.2153 247° West 125 144 10,000 -984 Descending Seattle Center
Fri 11:43:25 PM 47.2633 -121.2644 263° West 133 153 9,100 -836 Descending Seattle Center
Fri 11:44:26 PM 47.2589 -121.3178 255° West 132 152 8,300 -595 Descending Seattle Center
Fri 11:45:26 PM 47.2506 -121.3650 272° West 124 143 7,900 -300 Descending Seattle Center
Fri 11:45:46 PM 47.2511 -121.3842 283° West 116 133 7,900 98 Level Seattle Center
Fri 11:46:27 PM 47.2550 -121.4097 295° West 113 130 8,000 111 Climbing Seattle Center
Fri 11:46:40 PM 47.2589 -121.4222 278° West 113 130 8,000 -98 Level Seattle Center
Fri 11:47:28 PM 47.2619 -121.4547 268° West 111 128 7,900 -98 Descending Seattle Center
Fri 11:47:41 PM 47.2617 -121.4667 288° West 115 132 7,900 -295 Level Seattle Center
Fri 11:48:29 PM 47.2686 -121.4978 277° West 112 129 7,600 -590 Descending Seattle Center
Fri 11:48:42 PM 47.2700 -121.5144 286° West 124 143 7,300 -590 Descending Seattle Center
Fri 11:49:30 PM 47.2764 -121.5481 271° West 124 143 7,000 -295 Descending Seattle Center
Fri 11:49:43 PM 47.2767 -121.5664 287° West 123 142 7,000 -98 Level Seattle Center
Fri 11:50:31 PM 47.2831 -121.5964 298° West 122 140 6,900 -100 Descending Seattle Center
Fri 11:50:43 PM 47.2886 -121.6119 286° West 119 137 6,900 98 Level Seattle Center
Fri 11:51:32 PM 47.2958 -121.6492 273° West 116 133 7,000 98 Climbing Seattle Center
Fri 11:51:44 PM 47.2961 -121.6572 283° West 115 132 7,000 -393 Level Seattle Center
Fri 11:52:33 PM 47.3022 -121.6950 286° West 115 132 6,600 -590 Descending Seattle Center
Fri 11:52:45 PM 47.3042 -121.7050 288° West 121 139 6,400 -575 Descending Seattle Center
Fri 11:53:46 PM 47.3164 -121.7606 277° West 132 152 5,900 -273 Descending Seattle Center
Fri 11:54:35 PM 47.3192 -121.7931 285° West 118 136 5,900  Level Seattle Center
Fri 11:54:47 PM 47.3217 -121.8067 303° West 116 133 5,900 -98 Level Seattle Center
Fri 11:55:36 PM 47.3325 -121.8314 290° West 107 123 5,800 -197 Descending Seattle Center
Fri 11:55:48 PM 47.3350 -121.8417 291° West 105 121 5,700 -689 Descending Seattle Center
Fri 11:56:37 PM 47.3436 -121.8744 291° West 112 129 5,100 -800 Descending Seattle Center
Fri 11:56:48 PM 47.3478 -121.8903 292° West 126 145 4,900 -200 Descending Seattle Center
Fri 11:57:37 PM 47.3561 -121.9211 288° West 121 139 4,900  Level Seattle Center
Fri 11:57:49 PM 47.3594 -121.9361 292° West 114 131 4,900 -197 Level Seattle Center
Fri 11:58:38 PM 47.3667 -121.9631 300° West 113 130 4,700 -393 Descending Seattle Center
Fri 11:58:50 PM 47.3725 -121.9781 295° West 125 144 4,500 -689 Descending Seattle Center
Fri 11:59:39 PM 47.3822 -122.0086 265° West 124 143 4,000 -984 Descending Seattle Center
Fri 11:59:51 PM 47.3811 -122.0289 285° West 124 143 3,500 -1,279 Descending Seattle Center
Sat 12:00:40 AM 47.3889 -122.0719 285° West 139 160 2,700 -984 Descending Seattle Center
Sat 12:00:52 AM 47.3914 -122.0856 280° West 144 166 2,500 -493 Descending Seattle Center
Sat 12:01:53 AM 47.3978 -122.1378 310° West 132 152 2,100  Descending Seattle Center
Sat 12:02:42 AM 47.4139 -122.1667 343° North 125 144 2,500 600 Climbing Seattle Center
Sat 12:02:53 AM 47.4217 -122.1703 357° North 135 155 2,700 590 Climbing Seattle Center
Sat 12:03:43 AM 47.4517 -122.1722 303° West 140 161 3,100 590 Climbing Seattle Center
Sat 12:03:54 AM 47.4556 -122.1811 295° West 126 145 3,300 600 Climbing Seattle Center
Sat 12:04:43 AM 47.4653 -122.2114 260° West 111 128 3,700 492 Climbing Seattle Center
Sat 12:04:55 AM 47.4639 -122.2225 272° West 93 107 3,800 197 Climbing Seattle Center
Sat 12:05:44 AM 47.4647 -122.2522 263° West 103 119 3,900 98 Climbing Seattle Center
Sat 12:05:56 AM 47.4636 -122.2650 270° West 107 123 3,900 -98 Level Seattle Center
Sat 12:06:45 AM 47.4636 -122.2972 273° West 108 124 3,800  Descending Seattle Center
Sat 12:06:57 AM 47.4642 -122.3108 275° West 112 129 3,900 98 Climbing Seattle Center
Sat 12:07:46 AM 47.4658 -122.3389 270° West 105 121 3,900 -200 Level Seattle Center
Sat 12:07:57 AM 47.4658 -122.3525 309° West 109 125 3,700 -787 Descending Seattle Center
Sat 12:08:47 AM 47.4825 -122.3833 312° West 137 158 3,100 -885 Descending Seattle Center
Sat 12:08:58 AM 47.4942 -122.4025 320° Northwest 146 168 2,800 -1,000 Descending Seattle Center
Sat 12:09:59 AM 47.5267 -122.4436 337° Northwest 151 174 1,900 -709 Descending Seattle Center
Sat 12:10:48 AM 47.5528 -122.4603 348° North 142 163 1,500 -393 Descending Seattle Center
Sat 12:11:00 AM 47.5628 -122.4633 33° Northeast 143 165 1,500  Level Seattle Center
Sat 12:11:49 AM 47.5903 -122.4367 39° Northeast 158 182 1,500 -98 Level Seattle Center
Sat 12:12:01 AM 47.5981 -122.4272 70° East 160 184 1,400 -197 Descending Seattle Center
Sat 12:12:50 AM 47.6083 -122.3858 115° Southeast 144 166 1,300 -200 Descending Seattle Center
Sat 12:13:01 AM 47.6047 -122.3744 139° Southeast 135 155 1,200 -590 Descending Seattle Center
Sat 12:13:51 AM 47.5875 -122.3519 180° South 103 119 700 -590 Descending Seattle Center
Sat 12:14:02 AM 47.5858 -122.3519 149° Southeast 103 119 600 -197 Descending Seattle Center
Sat 12:14:52 AM 47.5642 -122.3325 158° South 98 113 500 -197 Descending Seattle Center
Sat 12:15:03 AM 47.5628 -122.3317 149° Southeast 96 110 400 -400 Descending Seattle Center
Sat 12:15:52 AM 47.5450 -122.3156 149° Southeast 96 110 100 -367 Descending Seattle Center

Login

Don't have an account? Register now (free) for customized features, flight alerts, and more!